Location: *
(32.8140°S, 174.6161°E)
Time: 17:20:13
(UTC+00:00)

Cosmos 1315 Rocket - Pass Details

Date: 10 December 2019
Orbit: 529 x 569 km, 81.2° (Epoch: 25 January)

Event Time Altitude Azimuth Distance (km) Brightness Sun altitude
Rises 16:30:57 0° 360° (N) 2,741 6.0 -7.3°
Reaches altitude 10° 16:33:08 10° 2° (N) 1,848 5.2 -6.9°
Maximum altitude 16:37:11 66° 84° (E) 617 3.3 -6.2°
Drops below altitude 10° 16:41:14 10° 166° (SSE) 1,853 6.3 -5.4°
Sets 16:43:25 0° 168° (SSE) 2,748 7.1 -5.0°
